Dallas/Ft Worth, TX

9:50 AM CDT on October 20, 2017 (GMT -0500)
Dallas-Fort Worth International

Weather History for KDFW - February, 2013

Change the Weather History Date:

Monday, February 4, 2013

  Actual Average Record
Temperature  
Mean Temperature 64 °F 48 °F  
Max Temperature 73 °F 58 °F 82 °F (2008)
Min Temperature 54 °F 37 °F 8 °F (1996)
Degree Days  
Heating Degree Days 1 17  
Month to date heating degree days 42 71  
Since 1 July heating degree days 1275 1576  
Cooling Degree Days 0 0  
Month to date cooling degree days 0 0  
Year to date cooling degree days 10 2  
Growing Degree Days 14 (Base 50)    
Moisture  
Dew Point 49 °F    
Average Humidity 57    
Maximum Humidity 86    
Minimum Humidity 28    
Precipitation  
Precipitation 0.02 in 0.08 in 0.82 in (1991)
Month to date precipitation 0.02 0.32  
Year to date precipitation 4.08 2.45  
Snow  
Snow 0.00 in 0.00 in 2.60 in (2011)
Month to date snowfall 0.0 0.1  
Since 1 July snowfall 0.8 0.6  
Snow Depth 0.00 in    
Sea Level Pressure  
Sea Level Pressure 29.86 in    
Wind  
Wind Speed 11 mph (SSE)    
Max Wind Speed 22 mph    
Max Gust Speed 27 mph    
Visibility 10 miles    
Events      
T = Trace of Precipitation, MM = Missing Value Source: NWS Daily Summary

Daily Weather History Graph

Daily Weather History Graph

Search for Another Location

Airport or City:

Trip Planner

Search our weather history database for the weather conditions in past years. The results will help you decide how hot, cold, wet, or windy it might be!

Date:

Astronomy

Feb. 04, 2013 Rise Set
Actual Time 7:20 AM CST 6:03 PM CST
Civil Twilight 6:55 AM CST 6:29 PM CST
Nautical Twilight 6:25 AM CST 6:58 PM CST
Astronomical Twilight 5:56 AM CST 7:27 PM CST
Moon 1:54 AM CST (2/4) 12:33 PM CST (2/4)
Length of Visible Light 11h 34m
Length of Day
10h 42m
Last Quarter, 37% of the Moon is Illuminated
Feb 4
Last Quarter
Feb 10
New
Feb 17
First Quarter
Feb 25
Full
Mar 4
Last Quarter

Hourly Weather History & Observations

Time (CST) Temp. Dew Point Humidity Pressure Visibility Wind Dir Wind Speed Gust Speed Precip Events Conditions
12:53 AM 57.9 °F 27.0 °F 31% 29.96 in 10.0 mi South 9.2 mph - N/A   Overcast
1:53 AM 60.1 °F 28.9 °F 31% 29.94 in 10.0 mi South 16.1 mph - N/A   Overcast
2:53 AM 59.0 °F 34.0 °F 39% 29.93 in 10.0 mi South 12.7 mph - N/A   Overcast
4:53 AM 57.9 °F 41.0 °F 53% 29.89 in 10.0 mi South 17.3 mph - N/A   Overcast
5:53 AM 57.9 °F 41.0 °F 53% 29.88 in 10.0 mi South 13.8 mph 23.0 mph N/A   Overcast
6:53 AM 57.0 °F 43.0 °F 59% 29.90 in 10.0 mi South 12.7 mph - N/A   Mostly Cloudy
7:53 AM 55.0 °F 46.9 °F 74% 29.89 in 10.0 mi South 15.0 mph - 0.02 in   Mostly Cloudy
8:53 AM 57.0 °F 51.1 °F 81% 29.88 in 10.0 mi South 17.3 mph - N/A   Mostly Cloudy
9:53 AM 60.1 °F 52.0 °F 75% 29.89 in 10.0 mi South 11.5 mph - N/A   Mostly Cloudy
10:45 AM 63.0 °F 52.0 °F 67% 29.89 in 10.0 mi South 17.3 mph - N/A   Mostly Cloudy
10:53 AM 63.0 °F 53.1 °F 70% 29.88 in 10.0 mi South 18.4 mph - N/A   Mostly Cloudy
11:53 AM 64.0 °F 53.1 °F 67% 29.86 in 10.0 mi South 16.1 mph - N/A   Mostly Cloudy
12:53 PM 66.9 °F 53.1 °F 61% 29.83 in 10.0 mi South 15.0 mph - N/A   Mostly Cloudy
1:53 PM 68.0 °F 53.1 °F 59% 29.80 in 10.0 mi South 8.1 mph - N/A   Mostly Cloudy
2:53 PM 71.1 °F 53.1 °F 53% 29.78 in 10.0 mi South 9.2 mph - N/A   Mostly Cloudy
3:53 PM 71.1 °F 53.1 °F 53% 29.78 in 10.0 mi SSE 5.8 mph - N/A   Mostly Cloudy
4:53 PM 71.1 °F 53.1 °F 53% 29.78 in 10.0 mi SE 9.2 mph - N/A   Mostly Cloudy
5:53 PM 68.0 °F 53.1 °F 59% 29.79 in 10.0 mi SE 8.1 mph - N/A   Scattered Clouds
6:53 PM 63.0 °F 53.1 °F 70% 29.81 in 10.0 mi ESE 8.1 mph - N/A   Partly Cloudy
7:53 PM 62.1 °F 53.1 °F 72% 29.84 in 10.0 mi ESE 5.8 mph - N/A   Partly Cloudy
8:53 PM 59.0 °F 53.1 °F 81% 29.85 in 10.0 mi SE 5.8 mph - N/A   Partly Cloudy
9:53 PM 60.1 °F 54.0 °F 80% 29.86 in 10.0 mi ESE 4.6 mph - N/A   Clear
10:53 PM 57.9 °F 54.0 °F 87% 29.87 in 10.0 mi NNE 4.6 mph - N/A   Clear
11:53 PM 57.9 °F 54.0 °F 87% 29.87 in 10.0 mi East 4.6 mph - N/A   Clear